Tracking 25723 objects as of 26-Jun-2022
HD Live streaming from Space Station
objects crossing your sky now

GORIZONT 32

Track GORIZONT 32 now!
GORIZONT 32 is classified as:


NORAD ID: 23880
Int'l Code: 1996-034A
Perigee: 35,792.0 km
Apogee: 35,866.5 km
Inclination: 14.5 °
Period: 1,437.9 minutes
Semi major axis: 42200 km
RCS: 17.7827 m2 (large)
Launch date: May 25, 1996
Source: Commonwealth of Independent States (former USSR) (CIS)
Launch site: TYURATAM MISSILE AND SPACE COMPLEX (TTMTR)

Telecommunications; augment television channels available to the people of Siberia.
aabbcc
Your satellite tracking list
Your tracking list is empty




NASA's NSSDC Master Catalog

Two Line Element Set (TLE):
1 23880U 96034A   22177.50864109 -.00000013  00000-0  00000-0 0  9990
2 23880  14.4606   6.0044 0008824   2.7390 330.0735  1.00145137 95480
Source of the keplerian elements: AFSPC